Stations météo

réclame
Mon MeteoGroup
Hereford/Credenhill, Grande-Bretagne (3522): Température de l'air & dewpoint: 13.07.2018 18:00:00 - 19.07.2018 18:00:00 (BST)Hereford/Credenhill, Grande-Bretagne (3522): Température de l'air -20cm & Température de l'air -100cm: 13.07.2018 18:00:00 - 19.07.2018 18:00:00 (BST)Hereford/Credenhill, Grande-Bretagne (3522): Vitesse du vent: 13.07.2018 18:00:00 - 19.07.2018 18:00:00 (BST)Hereford/Credenhill, Grande-Bretagne (3522): Direction du vent: 13.07.2018 18:00:00 - 19.07.2018 18:00:00 (BST)Hereford/Credenhill, Grande-Bretagne (3522): reduced air pressure: 13.07.2018 18:00:00 - 19.07.2018 18:00:00 (BST)Hereford/Credenhill, Grande-Bretagne (3522): visibility: 13.07.2018 18:00:00 - 19.07.2018 18:00:00 (BST)Hereford/Credenhill, Grande-Bretagne (3522): Quantités de précipitations: 13.07.2018 18:00:00 - 19.07.2018 18:00:00 (BST)
Date & Time tt [°C] td [°C] tt -20cm [°C] tt -100cm [°C] ff [km/h] ff [knt] dd ppp [hPa] vv [km] rr [mm]
19.07.2018 18:00:00 26,0 9,8 - - 5 3 SW 1017,0 18 0,0
19.07.2018 17:00:00 25,6 9,5 - - 5 3 WSW 1017,4 20 0,0
19.07.2018 16:00:00 25,5 10,7 - - 4 2 NE 1017,8 18 0,0
19.07.2018 15:00:00 23,5 10,2 - - 5 3 N 1018,5 18 0,0
19.07.2018 14:00:00 24,2 11,9 - - 8 4 E 1018,8 20 0,0
19.07.2018 13:00:00 22,9 10,5 - - 5 3 WSW 1019,3 17 0,0
19.07.2018 12:00:00 21,7 11,6 - - 4 2 NNW 1019,6 18 0,0
19.07.2018 11:00:00 20,0 10,9 - - 5 3 NW 1020,0 18 0,0
19.07.2018 10:00:00 17,9 11,9 17,2 15,2 2 1 WSW 1020,3 18 0,0
19.07.2018 09:00:00 16,1 12,2 - - 5 3 W 1020,4 16 0,0
19.07.2018 08:00:00 13,2 11,5 - - 4 2 SSW 1020,5 12 0,0
19.07.2018 07:00:00 12,3 11,0 - - 4 2 SW 1020,5 11 0,0
19.07.2018 06:00:00 11,7 10,5 - - 5 3 W 1020,4 12 0,0
19.07.2018 05:00:00 11,8 10,4 - - 5 3 WSW 1020,3 13 0,0
19.07.2018 04:00:00 12,1 10,3 - - 5 3 W 1020,3 11 0,0
19.07.2018 03:00:00 12,1 10,4 - - 8 4 W 1020,2 14 0,0
19.07.2018 02:00:00 12,4 10,5 - - 5 3 W 1020,4 16 0,0
19.07.2018 01:00:00 13,0 10,5 - - 8 4 W 1020,1 12 0,0
19.07.2018 00:00:00 14,0 10,6 - - 4 2 WNW 1019,8 17 0,0
18.07.2018 23:00:00 15,5 10,4 - - 5 3 WNW 1019,6 15 0,0
18.07.2018 22:00:00 18,2 9,5 - - 5 3 W 1019,3 15 0,0
18.07.2018 21:00:00 20,0 10,4 - - 8 4 W 1019,0 18 0,0
18.07.2018 20:00:00 21,5 13,4 - - 2 1 WSW 1018,6 20 0,0
18.07.2018 19:00:00 21,7 12,3 - - 4 2 NE 1018,2 20 0,0
18.07.2018 18:00:00 21,9 12,5 - - 2 1 NW 1018,3 18 0,0
18.07.2018 17:00:00 20,6 12,7 - - 2 1 SW 1018,5 17 0,0
18.07.2018 16:00:00 21,4 12,9 - - 4 2 W 1018,3 18 0,0
18.07.2018 15:00:00 21,7 12,5 - - 4 2 NNE 1018,2 19 0,0
18.07.2018 14:00:00 20,2 13,5 - - 5 3 SSE 1018,4 17 0,0
18.07.2018 13:00:00 20,0 12,9 - - 2 1 SSW 1018,3 16 0,0
18.07.2018 12:00:00 19,6 13,9 - - 5 3 ENE 1018,5 17 0,0
18.07.2018 11:00:00 18,4 13,2 - - 5 3 N 1018,7 18 0,0
18.07.2018 10:00:00 16,9 13,4 17,7 15,2 2 1 ENE 1018,7 15 0,0
18.07.2018 09:00:00 16,3 12,9 - - 4 2 NW 1018,7 18 0,0
18.07.2018 08:00:00 15,6 13,1 - - 2 1 ENE 1018,3 13 0,0
18.07.2018 07:00:00 14,5 12,6 - - 5 3 ENE 1017,9 14 0,0
18.07.2018 06:00:00 13,4 11,6 - - 2 1 NE 1017,8 15 0,0
18.07.2018 05:00:00 13,5 11,8 - - 4 2 E 1017,6 14 0,0
18.07.2018 04:00:00 13,2 11,7 - - 2 1 WNW 1017,5 23 0,0
18.07.2018 03:00:00 13,2 11,7 - - 2 1 W 1017,7 20 0,0
18.07.2018 02:00:00 12,6 11,4 - - 2 1 NNE 1017,6 20 0,0
18.07.2018 01:00:00 12,7 11,0 - - 2 1 SW 1017,8 17 0,0
18.07.2018 00:00:00 14,4 10,6 - - 5 3 NE 1017,9 24 0,0
17.07.2018 23:00:00 16,2 11,3 - - 5 3 WSW 1017,5 23 0,0
17.07.2018 22:00:00 16,5 11,0 - - 4 2 WSW 1017,3 18 0,0
17.07.2018 21:00:00 17,4 10,7 - - 5 3 WSW 1016,8 24 0,0
17.07.2018 20:00:00 19,0 10,2 - - 13 7 W 1016,4 29 0,0
17.07.2018 19:00:00 20,0 10,3 - - 11 6 W 1015,9 30 0,0
17.07.2018 18:00:00 20,7 9,8 - - 13 7 W 1015,8 28 0,0
17.07.2018 17:00:00 20,8 9,0 - - 11 6 W 1015,8 30 0,0
17.07.2018 16:00:00 21,1 10,0 - - 13 7 W 1015,9 30 0,0
17.07.2018 15:00:00 21,7 9,5 - - 11 6 W 1015,9 22 0,0
17.07.2018 14:00:00 20,5 10,2 - - 5 3 SW 1016,0 28 0,0
17.07.2018 13:00:00 20,2 10,6 - - 11 6 W 1016,3 23 0,0
17.07.2018 12:00:00 19,3 11,5 - - 15 8 W 1016,1 24 0,0
17.07.2018 11:00:00 18,5 11,8 - - 4 2 SSW 1016,1 25 0,0
17.07.2018 10:00:00 18,3 11,8 17,7 15,2 5 3 W 1016,0 25 0,0
17.07.2018 09:00:00 16,9 12,3 - - 5 3 SSE 1016,0 24 0,0
17.07.2018 08:00:00 15,0 12,7 - - 4 2 SW 1015,9 18 0,0
17.07.2018 07:00:00 13,3 12,7 - - 4 2 SW 1015,7 15 0,0
17.07.2018 06:00:00 9,8 9,6 - - 2 1 N 1015,4 16 0,0
17.07.2018 05:00:00 10,0 9,8 - - 2 1 NE 1015,2 12 0,0
17.07.2018 04:00:00 9,9 9,5 - - 2 1 SE 1015,2 12 0,0
17.07.2018 03:00:00 11,0 10,4 - - 4 2 W 1015,2 24 0,0
17.07.2018 02:00:00 11,3 10,2 - - 4 2 W 1015,2 22 0,0
17.07.2018 01:00:00 12,3 10,4 - - 5 3 W 1015,4 17 0,0
17.07.2018 00:00:00 12,7 10,4 - - 5 3 WSW 1015,5 18 0,0
16.07.2018 23:00:00 14,0 10,4 - - 9 5 W 1015,3 22 0,0
16.07.2018 22:00:00 14,7 10,8 - - 11 6 W 1014,9 20 0,0
16.07.2018 21:00:00 16,6 12,1 - - 13 7 W 1014,1 24 0,0
16.07.2018 20:00:00 19,3 13,2 - - 18 10 W 1013,2 28 0,0
16.07.2018 19:00:00 20,6 16,6 - - 4 2 SW 1012,6 20 0,0
16.07.2018 18:00:00 19,9 17,3 - - 4 2 SW 1012,8 20 0,2
16.07.2018 17:00:00 18,4 15,8 - - 8 4 WSW 1013,3 13 0,4
16.07.2018 16:00:00 20,5 13,8 - - 13 7 WSW 1013,1 20 0,0
16.07.2018 15:00:00 24,1 12,2 - - 9 5 SW 1012,6 23 0,0
16.07.2018 14:00:00 24,3 13,4 - - 5 3 SSE 1013,0 19 0,0
16.07.2018 13:00:00 24,3 15,0 - - 9 5 SE 1013,4 11 0,0
16.07.2018 12:00:00 22,0 14,5 - - 5 3 SE 1013,9 13 0,0
16.07.2018 11:00:00 21,3 13,6 - - 4 2 SSE 1014,1 16 0,0
16.07.2018 10:00:00 19,4 14,4 18,2 15,2 2 1 SE 1014,3 16 0,0
16.07.2018 09:00:00 18,0 13,6 - - 4 2 ESE 1014,4 18 0,0
16.07.2018 08:00:00 17,3 13,1 - - 4 2 ENE 1014,5 17 0,0
16.07.2018 07:00:00 16,2 13,9 - - 2 1 WNW 1014,5 16 0,0
16.07.2018 06:00:00 14,9 13,1 - - 2 1 ENE 1014,7 18 0,0
16.07.2018 05:00:00 14,6 12,6 - - 4 2 E 1014,6 14 0,0
16.07.2018 04:00:00 15,8 13,2 - - 2 1 SSW 1014,7 17 0,0
16.07.2018 03:00:00 16,4 12,6 - - 5 3 W 1015,0 23 0,0
16.07.2018 02:00:00 16,2 12,4 - - 5 3 WNW 1015,3 27 0,0
16.07.2018 01:00:00 14,7 12,6 - - 5 3 W 1015,6 19 0,0
16.07.2018 00:00:00 14,8 12,8 - - 2 1 SW 1015,6 15 0,0
15.07.2018 23:00:00 15,5 12,1 - - 2 1 WNW 1015,7 16 0,0
15.07.2018 22:00:00 17,5 11,5 - - 4 2 SSW 1015,4 8 0,0
15.07.2018 21:00:00 20,9 11,1 - - 9 5 WSW 1015,0 21 0,0
15.07.2018 20:00:00 23,7 11,5 - - 13 7 W 1014,6 21 0,0
15.07.2018 19:00:00 24,4 11,1 - - 11 6 WSW 1014,5 14 0,0
15.07.2018 18:00:00 25,5 11,3 - - 13 7 W 1014,7 20 0,0
15.07.2018 17:00:00 26,2 10,5 - - 13 7 WSW 1014,8 20 0,0
15.07.2018 16:00:00 25,8 11,3 - - 9 5 W 1015,1 27 0,0
15.07.2018 15:00:00 25,3 10,6 - - 8 4 WNW 1015,2 22 0,0
15.07.2018 14:00:00 25,6 11,9 - - 5 3 S 1015,8 23 0,0
15.07.2018 13:00:00 24,2 11,8 - - 9 5 W 1016,5 23 0,0
15.07.2018 12:00:00 22,8 11,9 - - 8 4 W 1016,9 23 0,0
15.07.2018 11:00:00 21,6 13,3 - - 8 4 W 1017,3 25 0,0
15.07.2018 10:00:00 20,0 14,1 18,0 15,2 2 1 E 1017,6 20 0,0
15.07.2018 09:00:00 18,4 14,0 - - 5 3 S 1018,0 19 0,0
15.07.2018 08:00:00 16,7 14,3 - - 4 2 E 1018,1 13 0,0
15.07.2018 07:00:00 13,2 13,1 - - 2 1 S 1018,2 9 0,0
15.07.2018 06:00:00 11,1 10,9 - - 4 2 SSW 1018,2 6 0,0
15.07.2018 05:00:00 11,6 11,2 - - 4 2 W 1018,2 7 0,0
15.07.2018 04:00:00 12,0 11,5 - - 4 2 SW 1018,5 9 0,0
15.07.2018 03:00:00 12,7 11,8 - - 5 3 W 1018,6 13 0,0
15.07.2018 02:00:00 13,6 12,2 - - 4 2 WNW 1018,6 18 0,0
15.07.2018 01:00:00 14,6 12,3 - - 5 3 WNW 1018,6 21 0,0
15.07.2018 00:00:00 15,5 12,3 - - 5 3 W 1018,7 22 0,0
14.07.2018 23:00:00 17,1 12,7 - - 9 5 W 1018,6 22 0,0
14.07.2018 22:00:00 18,9 13,0 - - 9 5 W 1018,5 24 0,0
14.07.2018 21:00:00 21,1 12,9 - - 13 7 W 1018,0 22 0,0
14.07.2018 20:00:00 22,9 13,7 - - 5 3 WSW 1017,8 17 0,0
14.07.2018 19:00:00 25,4 13,3 - - 4 2 SW 1017,7 27 0,0
14.07.2018 18:00:00 25,8 13,0 - - 8 4 SE 1017,8 21 0,0
14.07.2018 17:00:00 24,7 12,4 - - 4 2 WSW 1018,2 20 0,0
14.07.2018 16:00:00 24,4 12,7 - - 5 3 SW 1018,6 21 0,0
14.07.2018 15:00:00 24,0 13,4 - - 5 3 W 1019,1 19 0,0
14.07.2018 14:00:00 24,3 13,8 - - 9 5 ESE 1019,6 21 0,0
14.07.2018 13:00:00 21,9 15,3 - - 4 2 E 1020,2 13 0,0
14.07.2018 12:00:00 21,0 14,8 - - 5 3 NE 1020,8 9 0,0
14.07.2018 11:00:00 19,7 15,0 - - 2 1 NW 1021,3 8 0,0
14.07.2018 10:00:00 18,0 15,5 18,0 15,0 4 2 SSW 1021,5 5 0,0
14.07.2018 09:00:00 17,0 14,8 - - 4 2 W 1021,5 7 0,0
14.07.2018 08:00:00 15,9 14,3 - - 5 3 W 1021,5 8 0,0
14.07.2018 07:00:00 15,0 13,7 - - 5 3 W 1021,5 11 0,0
14.07.2018 06:00:00 14,0 13,2 - - 8 4 W 1021,4 11 0,0
14.07.2018 05:00:00 14,3 13,3 - - 5 3 W 1021,4 11 0,0
14.07.2018 04:00:00 14,8 13,8 - - 5 3 W 1021,8 12 0,0
14.07.2018 03:00:00 14,6 14,2 - - 4 2 WNW 1021,8 8 0,0
14.07.2018 02:00:00 13,9 13,5 - - 5 3 WNW 1021,9 8 0,0
14.07.2018 01:00:00 14,5 14,3 - - 8 4 W 1021,9 4,9 0,0
14.07.2018 00:00:00 14,7 14,5 - - 2 1 W 1021,9 1,7 0,0
13.07.2018 23:00:00 15,1 14,6 - - 2 1 E 1021,8 1,0 0,0
13.07.2018 22:00:00 15,9 14,8 - - 2 1 NNE 1021,5 3,0 0,0
13.07.2018 21:00:00 17,7 16,0 - - 2 1 SE 1021,1 9 0,0
13.07.2018 20:00:00 18,7 16,1 - - 4 2 SE 1021,0 14 0,0
13.07.2018 19:00:00 19,2 16,3 - - 9 5 ENE 1020,9 13 0,0
13.07.2018 18:00:00 19,8 17,2 - - 13 7 ENE 1020,9 14 0,0

tt = Température de l'air
td = dewpoint
tt -20cm = Température de l'air -20cm
tt -100cm = Température de l'air -100cm
ff = Vitesse du vent
dd = Direction du vent
ppp = reduced air pressure
vv = visibility
rr = Quantités de précipitations

stations d'obs. à proximité